Weather Roundup
Issued by NWS Chicago, IL

Home | Current Version | Previous Version | Text Only | Print | Product List | Glossary On
Versions: 1 2 3 4 5 6 7 8 9 10 11 12 13 14 15 16 17 18 19 20 21 22 23 24 25 26 27 28 29 30 31 32 33 34 35 36 37 38 39 40 41 42 43 44 45 46 47 48 49 50
000
NZUS59 KLOT 300708
HRRLOT

CHICAGO AREA WEATHER ROUNDUP
NATIONAL WEATHER SERVICE CHICAGO/ROMEOVILLE IL
200 AM CDT SAT JUL 30 2016

NOTE: "FAIR" INDICATES FEW OR NO CLOUDS BELOW 12,000 FEET WITH NO
SIGNIFICANT WEATHER AND/OR OBSTRUCTIONS TO VISIBILITY.

* THESE STATIONS ARE NOT UNDER NWS QUALITY CONTROL. THEY ALSO MAY NOT
  REPORT WEATHER SUCH AS PRECIPITATION OR FOG.

ILZ005-006-012>014-019>023-300800-
NORTHEAST ILLINOIS

CITY           SKY/WX    TMP DP  RH WIND       PRES   REMARKS
OHARE          MOCLDY    71  66  84 VRB6      29.93F
MIDWAY         CLOUDY    73  65  75 E7        29.92F
AURORA         CLOUDY    69  66  90 NE7       29.94F
LANSING*       PTCLDY    69  65  88 CALM      29.93S
JOLIET*        MOCLDY    72  69  92 N6        29.93S
WAUKEGAN       CLOUDY    71  66  84 NE8       29.95S
DUPAGE AIRPORT CLEAR     66  64  93 N5        29.94F
WHEELING       PTCLDY    71  65  81 NE3       29.95F
KANKAKEE*      CLEAR     67  65  96 CALM      29.93S FOG
MORRIS*        CLOUDY    69  67  96 CALM      29.92F FOG
LEWIS AIRPORT* CLEAR     69  65  86 NE6       29.93S
NORTHERLY ISL    N/A     73  66  78 NE9         N/A
$$

WIZ051-052-058>065-066-070>072-300800-
SOUTHEAST WISCONSIN

CITY           SKY/WX    TMP DP  RH WIND       PRES   REMARKS
MILWAUKEE      PTCLDY    70  60  70 E12       29.97F
KENOSHA*       CLEAR     68  65  90 E8        29.97S
RACINE*        CLOUDY    68  64  87 E9        29.98F
BURLINGTON     CLEAR     63  62  97 CALM      29.97S
WAUKESHA       CLOUDY    64  61  88 NE7       30.00S
$$

INZ001>003-010>013-019-020-300800-
NORTHWEST INDIANA

CITY           SKY/WX    TMP DP  RH WIND       PRES   REMARKS
GARY*          CLOUDY    71  71  99 E5        29.92F
MICHIGAN CITY* NOT AVBL
RENSSELAER*    NOT AVBL
VALPARAISO     PTCLDY    66  65  96 CALM      29.93F
$$

LMZ740>746-300800-
SOUTHERN LAKE MICHIGAN

STATION/POSITION TIME  SKY/WX   TEMP WIND        PRES    VSBY
                                AIR  DIR/SP/G
                 (UTC)          (F)  (DEG/KT/KT) (MB)    (MI)
HARRISON CRIB    0600            74   80/ 16/ 17   N/A
BURNHAM HARBOR   0700            73   50/  9/ 14   N/A
CALUMET HARBOR   0600            73   50/  7/  9 1013.2F
BURNS HARBOR     0604            70   80/  7/ 10 1013.9F
MICHIGAN CITY    0600            69   60/  4/  5   N/A
$$

ABBREVIATIONS USED IN REMARKS
   TC - TEMPERATURE IN CELSIUS
  WCI - WIND CHILL INDEX
   HX - HEAT INDEX
  VSB - VISIBILITY
$$



USA.gov is the U.S. government's official web portal to all federal, state and local government web resources and services.